Location: Igri�s
(42.2144°N, 0.4320°W)
Time: 14:28:43
(UTC+00:00)

SL-4 R/B - Pass Details

Date: 13 August 2020
Orbit: 428 x 665 km, 51.6° (Epoch: 24 September)

Event Time Altitude Azimuth Distance (km) Brightness Sun altitude
Rises 21:48:38 0° 293° (WNW) 2,636 6.4 -25.2°
Reaches altitude 10° 21:51:25 10° 312° (NW) 1,699 5.5 -25.5°
Maximum altitude 21:54:11 19° 358° (N) 1,203 4.3 -25.8°
Enters shadow 21:55:43 15° 30° (NNE) 1,344 4.2 -26.0°
